User: anonymous
Location: Unspecified
(0.0000°N, 0.0000°E)
Time: 01:29:06
(UTC+02:00)
Language:

ARIANE 5 DEB (SYLDA) - Orbit

View from above orbital plane
View from above orbital plane
View from above satellite
View from above satellite

Ground track
Ground track

The orbit data is extracted from the following two-line orbital elements,

1 32770U 08018D   14259.79722946  .10050106 -16534-4  58328-2 0  8582
2 32770 001.4229 156.5536 1685940 236.4007 132.8831 12.48117975 78146
Epoch (UTC): 16 September 2014 19:08:00
Eccentricity: 0.1685940
inclination: 1.4229°
perigee height: 149 km
apogee height: 2796 km
right ascension of ascending node: 156.5536°
argument of perigee: 236.4007°
revolutions per day: 12.48117975
mean anomaly at epoch: 132.8831°
orbit number at epoch: 7814

The dashed part of the orbit path shows where the satellite is in the earth's shadow,  

DLR